Flag for U.S.A. Weather past 2 weeks in Flint, Michigan, U.S.A.

Now
23 °F

Sunny.


Feels Like: 14 °F
Forecast: 9 / 25 °F
Wind: 8 mph from North

Location: Bishop International Airport

Current Time: Jan 27, 2015 at 11:58:49 AM

Latest Report: Jan 27, 2015 at 10:53 AM


Visibility: 10 mi

Pressure: 30.17 "Hg

Humidity: 65%

Dew point: 13 °F

Location of FlintLocation

Historic Weather in Flint — Graph

°F

Flint temperature yesterday

Maximum temperature yesterday: 27 °F (at 1:53 PM)
Minimum temperature yesterday: 10 °F (at 7:53 AM)
Average temperature yesterday: 18 °F

Past Weeks' High & Low Weather Summary

 TemperatureHumidityPressure
High44 °F (Jan 17, 3:53 PM)89% (Jan 18, 7:53 AM)30.80 "Hg (Jan 18, 7:53 AM)
Low-13 °F (Jan 14, 6:53 AM)42% (Jan 26, 2:53 PM)29.56 "Hg (Jan 24, 1:53 PM)
Average24 °F71%30.08 "Hg
* Reported Jan 12 9:53 AM — Jan 27 9:53 AM, Flint, Weather by CustomWeather, © 2014

Note: Actual official high and low records may vary slightly from our data, if they occured in-between our weather recording intervals... More about our weather records

Advertising

Flint weather history for previous 24 hours

 ConditionsComfort  
Time TempWeatherWind HumidityBarometerVisibility
9:53 AM
Jan 27
19 °FSunny.8 mph68%30.16 "Hg10 mi
8:53 AM15 °FSunny.6 mph77%30.15 "Hg10 mi
7:53 AM11 °FClear.3 mph77%30.13 "Hg10 mi
6:53 AM10 °FClear.3 mph80%30.10 "Hg10 mi
5:53 AM10 °FClear.No wind80%30.07 "Hg9 mi
4:53 AM8 °FClear.3 mph83%30.06 "Hg9 mi
3:53 AM9 °FClear.No wind80%30.04 "Hg9 mi
2:53 AM10 °FClear.No wind84%30.04 "Hg9 mi
1:53 AM9 °FClear.No wind84%30.02 "Hg9 mi
12:53 AM13 °FClear.No wind74%30.02 "Hg9 mi
11:53 PM
Jan 26
14 °FClear.5 mph80%30.02 "Hg10 mi
10:53 PM14 °FClear.3 mph80%30.02 "Hg10 mi
9:53 PM16 °FClear.3 mph74%30.02 "Hg10 mi
8:53 PM17 °FClear.7 mph70%30.02 "Hg10 mi
7:53 PM19 °FClear.12 mph71%30.01 "Hg10 mi
6:53 PM21 °FClear.10 mph60%29.98 "Hg10 mi
5:53 PM22 °FClear.7 mph57%29.97 "Hg10 mi
4:53 PM24 °FSunny.9 mph52%29.96 "Hg10 mi
3:53 PM26 °FSunny.7 mph46%29.95 "Hg10 mi
2:53 PM27 °FSunny.6 mph42%29.94 "Hg10 mi
1:53 PM27 °FSunny.5 mph46%29.94 "Hg10 mi
12:53 PM23 °FSunny.No wind57%29.96 "Hg10 mi
11:53 AM21 °FSunny.5 mph62%30.00 "Hg10 mi
Weather by CustomWeather, © 2014

See weather overviewHow to use our weather pages